Weather History for KVSF - November, 2013

Change the Weather History Date:

Friday, November 1, 2013

  Actual Average Record
Temperature  
Mean Temperature 57 °F 42 °F  
Max Temperature 67 °F 52 °F - ()
Min Temperature 46 °F 32 °F - ()
Degree Days  
Heating Degree Days 8 23  
Month to date heating degree days 8 23  
Since 1 July heating degree days 783 832  
Cooling Degree Days 0 0  
Month to date cooling degree days 0 0  
Year to date cooling degree days 495 345  
Growing Degree Days 8 (Base 50)    
Moisture  
Dew Point 54 °F    
Average Humidity 74    
Maximum Humidity 100    
Minimum Humidity 47    
Precipitation  
Precipitation 0.74 in 0.13 in - ()
Month to date precipitation 0.74 0.13  
Year to date precipitation 33.18 36.68  
Sea Level Pressure  
Sea Level Pressure 29.49 in    
Wind  
Wind Speed 7 mph (South)    
Max Wind Speed 21 mph    
Max Gust Speed 38 mph    
Visibility 8 miles    
Events Rain    
T = Trace of Precipitation, MM = Missing Value Source: NWS Daily Summary

Daily Weather History Graph

Daily Weather History Graph

Search for Another Location

Airport or City:

Trip Planner

Search our weather history database for the weather conditions in past years. The results will help you decide how hot, cold, wet, or windy it might be!

Date:

Astronomy

Nov. 01, 2013 Rise Set
Actual Time 7:25 AM EDT 5:41 PM EDT
Civil Twilight 6:55 AM EDT 6:10 PM EDT
Nautical Twilight 6:22 AM EDT 6:44 PM EDT
Astronomical Twilight 5:48 AM EDT 7:17 PM EDT
Moon 5:11 AM EDT (11/1) 4:34 PM EDT (11/1)
Length of Visible Light 11h 15m
Length of Day
10h 15m
Waning Crescent, 4% of the Moon is Illuminated
Nov 1
Waning Crescent
Nov 3
New
Nov 10
First Quarter
Nov 17
Full
Nov 25
Last Quarter

Hourly Weather History & Observations

Time (EDT) Temp. Dew Point Humidity Pressure Visibility Wind Dir Wind Speed Gust Speed Precip Events Conditions
12:54 AM 57.0 °F 55.0 °F 93% 29.66 in 10.0 mi Variable 5.8 mph - 0.02 in Rain Light Rain
12:58 AM 55.4 °F 55.4 °F 100% 29.65 in 10.0 mi South 5.8 mph - 0.00 in Rain Light Rain
1:28 AM 57.2 °F 55.4 °F 94% 29.63 in 6.0 mi South 4.6 mph - 0.01 in Rain Light Rain
1:54 AM 57.0 °F 55.0 °F 93% 29.62 in 6.0 mi South 9.2 mph - 0.03 in Rain Light Rain
2:54 AM 57.0 °F 55.0 °F 93% 29.60 in 5.0 mi South 10.4 mph - 0.06 in Rain Light Rain
3:54 AM 57.9 °F 55.9 °F 93% 29.56 in 7.0 mi South 6.9 mph - 0.05 in Rain Light Rain
4:46 AM 57.2 °F 55.4 °F 94% 29.52 in 10.0 mi South 8.1 mph - 0.07 in Rain Light Rain
4:54 AM 57.9 °F 55.9 °F 93% 29.53 in 8.0 mi South 11.5 mph 17.3 mph 0.08 in Rain Light Rain
5:54 AM 57.9 °F 57.0 °F 97% 29.50 in 7.0 mi SSE 9.2 mph - 0.04 in Rain Light Rain
6:09 AM 57.2 °F 57.2 °F 100% 29.48 in 6.0 mi South 9.2 mph - 0.01 in Rain Light Rain
6:49 AM 57.2 °F 57.2 °F 100% 29.47 in 3.0 mi SSE 8.1 mph - 0.11 in Rain Rain
6:54 AM 59.0 °F 57.0 °F 93% 29.47 in 3.0 mi SSE 8.1 mph - 0.13 in Rain Rain
7:34 AM 59.0 °F 57.2 °F 94% 29.45 in 4.0 mi South 5.8 mph - 0.10 in Rain Rain
7:54 AM 59.0 °F 57.9 °F 96% 29.45 in 5.0 mi South 3.5 mph - 0.13 in Rain Light Rain
8:17 AM 60.8 °F 59.0 °F 94% 29.44 in 3.0 mi South 5.8 mph - 0.04 in Rain Light Rain
8:33 AM 60.8 °F 59.0 °F 94% 29.44 in 10.0 mi SSE 5.8 mph - 0.04 in   Overcast
8:54 AM 61.0 °F 59.0 °F 93% 29.43 in 10.0 mi SSE 5.8 mph - 0.04 in   Overcast
9:44 AM 62.6 °F 60.8 °F 94% 29.41 in 10.0 mi South 4.6 mph - N/A   Overcast
9:54 AM 63.0 °F 60.1 °F 90% 29.40 in 8.0 mi South 9.2 mph - 0.00 in Rain Light Rain
10:41 AM 62.6 °F 60.8 °F 94% 29.38 in 1.8 mi South 18.4 mph 23.0 mph 0.06 in Rain Heavy Rain
10:50 AM 62.6 °F 60.8 °F 94% 29.40 in 3.0 mi SSW 12.7 mph 27.6 mph 0.08 in Rain Rain
10:54 AM 64.0 °F 60.1 °F 87% 29.41 in 5.0 mi SSW 10.4 mph 27.6 mph 0.09 in Rain Rain
11:54 AM 61.0 °F 55.0 °F 81% 29.42 in 10.0 mi SSW 10.4 mph 18.4 mph 0.05 in Rain Light Rain
12:54 PM 60.1 °F 57.0 °F 90% 29.40 in 10.0 mi SSE 4.6 mph - 0.04 in   Partly Cloudy
1:54 PM 64.0 °F 52.0 °F 65% 29.39 in 10.0 mi SSW 10.4 mph 18.4 mph N/A   Mostly Cloudy
2:54 PM 66.0 °F 48.9 °F 54% 29.39 in 10.0 mi SW 12.7 mph 27.6 mph N/A   Mostly Cloudy
3:54 PM 66.9 °F 46.0 °F 47% 29.41 in 10.0 mi SW 11.5 mph 31.1 mph N/A   Overcast
4:54 PM 66.0 °F 48.0 °F 52% 29.43 in 10.0 mi SSW 5.8 mph - N/A   Mostly Cloudy
5:54 PM 64.0 °F 46.9 °F 54% 29.45 in 10.0 mi SSW 4.6 mph - N/A   Mostly Cloudy
6:54 PM 55.0 °F 50.0 °F 83% 29.49 in 10.0 mi Calm Calm - N/A   Clear
7:54 PM 52.0 °F 48.0 °F 86% 29.55 in 10.0 mi Variable 3.5 mph - N/A   Clear
8:54 PM 59.0 °F 39.9 °F 49% 29.57 in 10.0 mi West 11.5 mph 19.6 mph N/A   Clear
9:54 PM 57.9 °F 39.9 °F 51% 29.61 in 10.0 mi Variable 5.8 mph - N/A   Clear
10:54 PM 51.1 °F 42.1 °F 71% 29.64 in 10.0 mi WNW 5.8 mph - N/A   Partly Cloudy
11:54 PM 48.9 °F 41.0 °F 74% 29.66 in 10.0 mi Calm Calm - N/A   Clear